This demonstration page uses our WeatherBlox Daily Observations layout. Learn more.

Left ArrowRight Arrow

53.62937, 11.41316

Hourly Observations for January 7, 2016

Temp ( °F °C ) Dew Point ( °F °C ) Humidity (%) Winds ( mph kmh ) Pressure ( in mb ) Visibility ( mi km ) Precip ( " mm )
5:20 am 05:20 Mostly Cloudy with Mist and Fog 14 -10 12 -11 92 92 E 9 15 29.68 1005 3 5 N/A
5:50 am 05:50 Mostly Cloudy with Mist and Fog 16 -9 14 -10 93 93 E 5 7 29.68 1005 3 5 N/A
6:20 am 06:20 Mostly Cloudy with Mist and Fog 18 -8 14 -10 86 86 E 7 11 29.68 1005 3 5 N/A
6:50 am 06:50 Mostly Cloudy with Mist and Fog 18 -8 14 -10 86 86 E 7 11 29.68 1005 2 3 N/A
7:20 am 07:20 Mostly Cloudy with Mist and Fog 18 -8 16 -9 93 93 ESE 6 9 29.68 1005 2 4 N/A
7:50 am 07:50 Mostly Cloudy with Mist and Fog 18 -8 14 -10 86 86 E 8 13 29.68 1005 2 4 N/A
8:20 am 08:20 Mostly Cloudy with Mist and Fog 18 -8 16 -9 93 93 E 10 17 29.68 1005 2 4 N/A
8:50 am 08:50 Cloudy with Mist and Fog 18 -8 16 -9 93 93 E 13 20 29.65 1004 2 4 N/A
9:20 am 09:20 Cloudy with Mist and Fog 19 -7 16 -9 86 86 E 10 17 29.65 1004 2 4 N/A
9:50 am 09:50 Cloudy with Mist and Fog 19 -7 16 -9 86 86 E 12 19 29.65 1004 2 4 N/A
10:20 am 10:20 Cloudy with Mist and Fog 19 -7 16 -9 86 86 E 10 17 29.65 1004 2 4 N/A
10:50 am 10:50 Cloudy with Mist and Fog 21 -6 18 -8 86 86 E 12 19 29.62 1003 3 4 N/A
11:20 am 11:20 Cloudy with Mist and Fog 21 -6 18 -8 86 86 E 9 15 29.62 1003 3 4 N/A
11:50 am 11:50 Cloudy with Mist and Fog 23 -5 18 -8 80 80 E 9 15 29.62 1003 3 5 N/A
12:20 pm 12:20 Cloudy with Mist and Fog 23 -5 18 -8 80 80 ESE 9 15 29.59 1002 3 5 N/A
12:50 pm 12:50 Mostly Cloudy with Mist and Fog 23 -5 19 -7 86 86 E 10 17 29.59 1002 3 5 N/A
1:20 pm 13:20 Cloudy with Mist and Fog 23 -5 19 -7 86 86 E 10 17 29.56 1001 3 5 N/A
1:50 pm 13:50 Cloudy with Mist and Fog 23 -5 19 -7 86 86 E 13 20 29.56 1001 3 5 N/A
2:20 pm 14:20 Cloudy with Mist and Fog 23 -5 19 -7 86 86 E 14 22 29.56 1001 3 5 N/A
2:50 pm 14:50 Cloudy with Mist and Fog 23 -5 18 -8 80 80 E 13 20 29.56 1001 3 5 N/A
3:20 pm 15:20 Cloudy with Mist and Fog 23 -5 18 -8 80 80 E 14 22 29.53 1000 3 4 N/A
3:50 pm 15:50 Cloudy with Mist and Fog 23 -5 19 -7 86 86 E 16 26 29.53 1000 3 4 N/A
4:20 pm 16:20 Cloudy with Mist and Fog 23 -5 19 -7 86 86 E 13 20 29.53 1000 3 4 N/A
4:50 pm 16:50 Cloudy with Mist and Fog 23 -5 19 -7 86 86 E 16 26 29.53 1000 3 5 N/A
5:20 pm 17:20 Cloudy with Mist and Fog 23 -5 19 -7 86 86 E 16 26 29.50 999 3 4 N/A
5:50 pm 17:50 Cloudy with Mist and Fog 23 -5 19 -7 86 86 E 21 33 29.50 999 3 4 N/A

Powered by AerisWeather